This demonstration page uses our WeatherBlox Daily Observations layout. Learn more.

Left ArrowRight Arrow

39.92423, -83.80882

Hourly Observations for August 18, 2020

Temp ( °F °C ) Dew Point ( °F °C ) Humidity (%) Winds ( mph kmh ) Pressure ( in mb ) Visibility ( mi km ) Precip ( " mm )
12:56 am 00:56 Mostly Cloudy 66 18.9 64 17.8 93 93 NW 3 6 29.97 1015 10 16 N/A
1:56 am 01:56 Clear 63 17.2 63 17.2 100 100 N N/A 29.97 1015 10 16 N/A
2:56 am 02:56 Partly Cloudy 62 16.7 62 16.7 100 100 WSW 3 6 29.96 1015 10 16 N/A
3:56 am 03:56 Mostly Cloudy 61 16.1 61 16.1 100 100 N N/A 29.95 1014 10 16 N/A
4:56 am 04:56 Cloudy 63 17.2 63 17.2 100 100 N N/A 29.95 1014 10 16 N/A
5:56 am 05:56 Cloudy 64 17.8 64 17.8 100 100 W 3 6 29.95 1014 10 16 N/A
6:56 am 06:56 Cloudy 64 17.8 64 17.8 100 100 WNW 5 7 29.98 1015 10 16 N/A
7:56 am 07:56 Cloudy with Rain 62 16.7 62 16.7 100 100 WSW 5 7 30.01 1016 7 11 0.08 2.03
8:56 am 08:56 Cloudy with Rain 62 16.7 62 16.7 100 100 N N/A 30.01 1016 7 11 0.11 2.79
9:56 am 09:56 Cloudy with Light Rain 63 17.2 63 17.2 100 100 W 3 6 30.02 1017 10 16 0.02 0.51
10:56 am 10:56 Cloudy with Light Rain 63 17.2 63 17.2 100 100 N 6 9 30.02 1017 10 16 0.01 0.25
11:56 am 11:56 Cloudy with Light Rain 64 17.8 64 17.8 100 100 W 3 6 30.02 1017 10 16 0.00 0.00
12:29 pm 12:29 Cloudy with Light Rain 64 18 64 18 100 100 NW 6 9 30.01 1016 10 16 0.01 0.25
12:56 pm 12:56 Partly Cloudy 66 18.9 66 18.9 100 100 NW 5 7 30.02 1017 10 16 0.01 0.25
1:56 pm 13:56 Cloudy 69 20.6 67 19.4 93 93 N 6 9 30.00 1016 10 16 N/A
2:54 pm 14:54 Partly Cloudy 72 22 66 19 83 83 NE 6 9 29.95 1014 10 16 N/A
2:56 pm 14:56 Partly Cloudy 71 21.7 67 19.4 87 87 NE 6 9 29.98 1015 10 16 N/A
3:56 pm 15:56 Mostly Cloudy 73 22.8 66 18.9 79 79 N N/A 29.97 1015 10 16 N/A
4:56 pm 16:56 Mostly Cloudy 73 22.8 62 16.7 69 69 NE 6 9 29.96 1015 10 16 N/A
5:56 pm 17:56 Cloudy 74 23.3 61 16.1 64 64 NNE 8 13 29.95 1014 10 16 N/A
6:56 pm 18:56 Cloudy 73 22.8 59 15 62 62 NNE 8 13 29.96 1014 10 16 N/A
7:56 pm 19:56 Cloudy 72 22.2 59 15 64 64 NNE 7 11 29.97 1015 10 16 N/A
8:56 pm 20:56 Clear 67 19.4 58 14.4 73 73 NNE 7 11 29.98 1015 10 16 N/A
9:56 pm 21:56 Clear 64 17.8 57 13.9 78 78 NE 6 9 30.01 1016 10 16 N/A
10:56 pm 22:56 Clear 64 17.8 56 13.3 75 75 NE 9 15 30.01 1016 10 16 N/A
11:56 pm 23:56 Clear 59 15 56 13.3 90 90 NE 8 13 30.02 1017 10 16 N/A

Powered by AerisWeather